Location: Albert Place
(40.7505°N, 111.9230°W)
Time: 13:34:35
(UTC+00:00)

NOAA 12 - Pass Details

Date: 13 December 2025
Orbit: 792 x 813 km, 98.6° (Epoch: 17 January)

Event Time Altitude Azimuth Distance (km) Brightness Sun altitude
Rises 12:19:21 0° 16° (NNE) 3,326 7.4 -26.4°
Reaches altitude 10° 12:21:44 10° 20° (NNE) 2,388 6.7 -26.0°
Maximum altitude 12:26:58 64° 102° (ESE) 883 4.4 -25.0°
Drops below altitude 10° 12:32:08 10° 183° (S) 2,358 6.6 -24.0°
Sets 12:34:28 0° 187° (S) 3,281 7.3 -23.6°
